Hourly Data Report for August 22, 2020

OTTAWA INTL A
ONTARIO
Current Station Operator: NAVCAN

45°19'00.000" N
75°40'00.000" W
114.90 m
6106001
71628
YOW

Download Data

Hourly Data (August 2020)
Hourly Data Report for August 22, 2020
TIME
LST
Temp Definition
°C
Dew Point Definition
°C
Rel Hum Definition
%
Precip. Amount Definition
mm

Wind Dir Definition
10's deg

Wind Spd Definition
km/h
Visibility Definition
km
Stn Press Definition
kPa
Hmdx Definition


Wind Chill Definition


Weather Definition


00:00 15.2 13.5 90   3 3 24.1 99.85     LegendNANA
01:00 15.9 14.8 93   36 1 24.1 99.84     Mostly Cloudy
02:00 15.4 14.7 95   25 4 24.1 99.88     LegendNANA
03:00 15.8 15.1 95   26 3 24.1 99.89     LegendNANA
04:00 16.2 15.1 93   3 4 24.1 99.90     Mostly Cloudy
05:00 15.9 14.2 90   3 6 24.1 99.93     LegendNANA
06:00 15.7 14.2 91   1 5 24.1 99.95     LegendNANA
07:00 18.4 15.1 81   36 5 24.1 99.98     Clear
08:00 20.0 14.6 70   32 4 24.1 100.02     LegendNANA
09:00 21.4 13.6 61   34 3 24.1 100.04 25   LegendNANA
10:00 22.4 14.0 59   0 1 24.1 100.05 26   Clear
11:00 23.6 13.8 54   29 5 24.1 100.07 27   LegendNANA
12:00 24.5 14.6 54   24 8 24.1 100.05 28   LegendNANA
13:00 26.0 13.8 46   24 10 24.1 100.03 29   Clear
14:00 26.2 13.8 46   26 16 24.1 100.01 29   LegendNANA
15:00 26.6 13.0 42   22 10 24.1 99.98 29   LegendNANA
16:00 26.9 14.1 45   26 8 24.1 99.97 30   Clear
17:00 26.4 13.4 44   36 2 24.1 99.96 29   LegendNANA
18:00 23.6 16.9 65   15 6 24.1 99.96 29   LegendNANA
19:00 21.1 15.7 71   15 10 24.1 99.96 26   Mostly Cloudy
20:00 20.9 16.0 74   17 7 24.1 100.00 26   LegendNANA
21:00 20.9 15.9 73   20 8 24.1 100.03 25   LegendNANA
22:00 20.2 16.5 79   16 6 24.1 100.06 25   Mostly Cloudy
23:00 19.6 17.0 85   19 9 24.1 100.07     LegendNANA

Notes on Data Quality.

Legend

  • E = Estimated
  • M = Missing
  • NA = Not Available*
  • [empty] = Indicates an unobserved value
Date modified: